• Processing (Info)

  • MPEC 2002-L35 : 1999 JA11

    The following Minor Planet Electronic Circular may be linked-to from your own Web pages, but must not otherwise be redistributed electronically.

    A form allowing access to any MPEC is at the bottom of this page.


    Read MPEC 2002-L34 Read MPEC 2002-L36


    M.P.E.C. 2002-L35                                Issued 2002 June 8, 17:05 UT
    
         The Minor Planet Electronic Circulars contain information on unusual
             minor planets and routine data on comets.  They are published
       on behalf of Commission 20 of the International Astronomical Union by the
              Minor Planet Center, Smithsonian Astrophysical Observatory,
                              Cambridge, MA 02138, U.S.A.
    
                 Prepared using the Tamkin Foundation Computer Network
    
                                  MPC@CFA.HARVARD.EDU
              URL http://cfa-www.harvard.edu/iau/mpc.html  ISSN 1523-6714
    
                                       1999 JA11
    
                               Revision to MPEC 1999-K05
    
    Observations:
         J99J11A  C2002 06 07.30258 17 59 37.91 -00 34 06.2          19.2 R      649
         J99J11A  C2002 06 07.33073 17 59 34.49 -00 34 17.8          18.7 R      649
         J99J11A  C2002 06 07.37329 17 59 29.27 -00 34 35.7          19.2 R      649
         J99J11A  C2002 06 08.28400 17 57 40.44 -00 41 22.0          19.7 R      649
         J99J11A  C2002 06 08.29811 17 57 38.53 -00 41 29.9          19.7 R      649
         J99J11A  C2002 06 08.31951 17 57 35.96 -00 41 39.0          19.7 R      649
    
    Observer details:
    649 Powell Observatory, Louisburg.  Observers K. Smalley, R. Fredrick,
        R. Trentman.  0.75-m Newtonian + CCD.
    
    Orbital elements:
    1999 JA11
    Epoch 2002 May 6.0 TT = JDT 2452400.5                   MPC
    M 149.91910              (2000.0)            P               Q
    n   0.69602109     Peri.  328.20146     +0.07577137     -0.96435932
    a   1.2610175      Node   116.34373     +0.96385900     +0.00571240
    e   0.3411199      Incl.   16.43300     +0.25541052     +0.26453443
    P   1.42           H   18.7           G   0.15           U   6
    Residuals in seconds of arc
    990514 704  0.2+  0.6-    990515 426  0.8+  0.3+    990517 426  0.2+  0.2+
    990514 704  0.1-  0.6+    990515 426  0.7+  0.4-    990517 426  0.2-  0.0
    990514 704  1.4+  0.8-    990515 426  0.7-  0.1+    990517 426  0.1+  0.6+
    990514 704 (2.4-  0.9+)   990516 684  0.4+  0.3+    990523 658  0.3-  0.6-
    990515 693  0.5-  0.4+    990516 684  1.0-  0.3-    990523 658  0.3-  0.5-
    990515 693  0.5-  0.3+    990516 426  0.3+  0.9-    990524 658  0.5+  0.2+
    990515 693  0.6-  0.4+    990516 426  0.2+  1.7-    990524 658  0.3-  0.4+
    990515 684  0.2-  0.3+    990516 046  1.0+  0.2+    990524 658  0.0   0.1+
    990515 684  0.2+  0.1+    990516 046  0.1-  0.2+    020607 649  0.5-  0.2-
    990515 684  0.5-  0.3+    990516 046  0.0   0.6+    020607 649  0.1+  0.4+
    990515 704  1.0+  0.2+    990516 046  0.1-  0.1-    020607 649  0.2+  0.9+
    990515 704  0.2+  0.1-    990517 704  1.7+  0.2+    020608 649  1.1+  0.4+
    990515 704  0.9-  0.8-    990517 704  0.3-  0.7-    020608 649  1.2-  1.1-
    990515 704  0.5-  0.2+    990517 704  2.0-  1.5+    020608 649  0.3+  0.3-
    
    Ephemeris:
    1999 JA11                a,e,i = 1.26, 0.34, 16                  q = 0.8309
    Date    TT    R. A. (2000) Decl.     Delta      r     Elong.  Phase     V
    2002 06 05    18 04.11   -00 18.6    0.725    1.688   151.6    16.6    20.0
    2002 06 15    17 43.65   -01 42.7    0.705    1.691   158.3    12.9    19.8
    2002 06 25    17 22.35   -03 48.0    0.708    1.690   156.7    13.7    19.9
    2002 07 05    17 03.23   -06 21.8    0.734    1.686   148.3    18.5    20.1
    2002 07 15    16 48.56   -09 08.5    0.780    1.679   137.8    24.0    20.4
    2002 07 25    16 39.44   -11 55.5    0.842    1.667   127.4    28.9    20.7
    2002 08 04    16 35.86   -14 35.4    0.914    1.653   117.8    32.9    21.0
    2002 08 14    16 37.36   -17 05.2    0.993    1.634   109.1    35.9    21.2
    2002 08 24    16 43.29   -19 23.7    1.074    1.612   101.3    37.9    21.4
    2002 09 03    16 53.02   -21 30.4    1.155    1.587    94.1    39.3    21.6
    2002 09 13    17 06.08   -23 25.0    1.232    1.558    87.6    40.2    21.7
    2002 09 23    17 22.08   -25 06.8    1.305    1.526    81.7    40.6    21.8
    2002 10 03    17 40.69   -26 34.7    1.370    1.490    76.1    40.7    21.9
    2002 10 13    18 01.73   -27 47.4    1.428    1.451    71.0    40.5    21.9
    2002 10 23    18 25.00   -28 43.1    1.476    1.409    66.2    40.3    21.9
    2002 11 02    18 50.34   -29 19.6    1.514    1.364    61.9    39.9    21.9
    
    Gareth V. Williams           (C) Copyright 2002 MPC           M.P.E.C. 2002-L35
    

    Read MPEC 2002-L34 Read MPEC 2002-L36


    MPEC number:

    Enter an MPEC number in one of the following forms:

    • 1997-B01 (the full form)
    • J97B01 (the packed version of the full form)
    • B01 (the abbreviated form)